[[{"header":{"parameterUnit":"m.s-1","parameterCategory":1,"la1":30.2991,"la2":30.254,"lo1":-89.0895,"lo2":-89.0444,"dy":0.0017,"dx":0.0017,"nx":28,"ny":28,"refTime":"2025-04-22T03:00:00:Z","depth":0,"parameterNumber":2,"parameterNumberName":"U-component_of_WINDS"},"data":[0,0,0,0,0,0,0,0,0,0,0,0,0,0,0,0,0,0,0,0,0,0,0,0,0,0,0,0,0,0,0,0,0,0,0,0,0,0,0,0,0,0,0,0,0,0,0,0,0,0,0,0,0,0,0,0,0,0,-2.3416,-2.3416,0,-2.3484,-2.3485,-2.3486,-2.3455,-2.3453,-2.3452,-2.345,-2.352,-2.3523,-2.3527,0,0,0,0,0,0,0,0,0,0,0,0,0,-2.3259,-2.3262,-2.3416,-2.3416,-2.3417,-2.3484,-2.3485,-2.3486,-2.3455,-2.3453,-2.3451,-2.3449,-2.3519,-2.3523,-2.3527,0,0,0,0,0,0,0,0,0,0,0,0,0,-2.3327,-2.3263,-2.3415,-2.341,-2.341,-2.3484,-2.3485,-2.3486,-2.3456,-2.3453,-2.3451,-2.3448,-2.3518,-2.3523,-2.3528,-2.361,0,0,-2.3543,-2.3546,0,0,0,0,0,0,0,0,-2.3323,-2.3333,-2.341,-2.3411,-2.3411,-2.3459,-2.3455,-2.3528,-2.3457,-2.3439,-2.345,-2.3447,-2.3502,-2.3508,-2.3526,-2.3614,-2.3617,-2.3544,-2.3547,-2.3549,-2.3551,0,0,0,0,0,0,0,-2.3318,-2.333,-2.3443,-2.3411,-2.3412,-2.3405,-2.3411,-2.3469,-2.3483,-2.344,-2.3438,-2.3446,-2.3501,-2.3521,-2.3528,-2.3618,-2.3544,-2.3548,-2.3551,-2.3553,-2.3777,-2.378,0,0,0,0,0,0,-2.3314,-2.3326,-2.3441,-2.3445,-2.336,-2.3409,-2.3417,-2.3446,-2.3483,-2.3486,-2.3449,-2.3445,-2.3514,-2.3522,-2.353,-2.363,-2.3549,-2.3554,-2.3557,-2.3775,-2.3778,-2.3781,0,0,0,0,0,0,-2.3311,-2.3324,-2.3438,-2.3385,-2.3399,-2.3415,-2.3447,-2.3449,-2.3469,-2.3489,-2.3492,-2.3466,-2.3512,-2.3523,-2.3591,-2.3632,-2.3556,-2.3561,-2.3771,-2.3776,-2.378,-2.3829,0,0,0,0,0,0,-2.3306,-2.3323,-2.3355,-2.3386,-2.3402,-2.3497,-2.345,-2.3452,-2.3478,-2.3473,-2.3507,-2.351,-2.3511,-2.3583,-2.3596,-2.3637,-2.3565,-2.3768,-2.3773,-2.3778,-2.3824,-2.3835,-2.3844,0,0,0,0,0,-2.3301,-2.3365,-2.3356,-2.337,-2.3441,-2.35,-2.3509,-2.3509,-2.3481,-2.3513,-2.3526,-2.3509,-2.3626,-2.3591,-2.3605,-2.3648,-2.3765,-2.3772,-2.3778,-2.382,-2.3833,-2.3844,0,0,0,0,0,0,-2.3338,-2.3369,-2.3359,-2.3436,-2.3466,-2.3494,-2.3534,-2.3523,-2.356,-2.3555,-2.3553,-2.3561,-2.3632,-2.3647,-2.3607,-2.3731,-2.3691,-2.3701,-2.3718,-2.3731,-2.374,-2.3735,-2.3569,0,0,0,0,0,-2.3355,-2.34,-2.3425,-2.3491,-2.3506,-2.3518,-2.3543,-2.3541,-2.3571,-2.3584,-2.3602,-2.3632,-2.3676,-2.3704,-2.3745,-2.3827,-2.3834,-2.3864,-2.3874,-2.3882,-2.389,-2.3935,-2.3949,-2.3802,-2.3802,-2.3802,0,0,-2.3391,-2.3414,-2.3442,-2.3499,-2.3521,-2.3568,-2.3528,-2.3579,-2.3614,-2.3591,-2.3656,-2.3672,-2.3705,-2.3781,-2.3815,-2.3795,-2.3932,-2.389,-2.3896,-2.39,-2.3943,-2.3957,-2.3969,-2.3807,-2.3806,-2.3805,0,0,-2.348,-2.3502,-2.3559,-2.3583,-2.3617,-2.3625,-2.3639,-2.367,-2.368,-2.3746,-2.373,-2.3772,-2.3846,-2.3871,-2.3893,-2.3995,-2.398,-2.4008,-2.4059,-2.4103,-2.4115,-2.4125,-2.4161,-2.4174,-2.4016,-2.4016,-2.4016,0,-2.3519,-2.3589,-2.3589,-2.3642,-2.3668,-2.3651,-2.3709,-2.3732,-2.3778,-2.3797,-2.3775,-2.3869,-2.3891,-2.3972,-2.3997,-2.4016,-2.4032,-2.4003,-2.4113,-2.4124,-2.4133,-2.4167,-2.4181,-2.4019,-2.4019,-2.4019,-2.4018,0,-2.3637,-2.3685,-2.3728,-2.3774,-2.3804,-2.3859,-2.3869,-2.39,-2.3896,-2.3906,-2.3974,-2.4,-2.4046,-2.4066,-2.4062,-2.4147,-2.4134,-2.4113,-2.4073,-2.415,-2.4182,-2.4196,-2.4024,-2.4023,-2.4022,-2.4021,0,0,-2.3748,-2.3796,-2.3811,-2.3832,-2.3871,-2.3909,-2.3964,-2.401,-2.4037,-2.407,-2.4116,-2.4181,-2.4162,-2.4188,-2.4187,-2.4226,-2.4305,-2.42,-2.4201,-2.4218,-2.4401,-2.4415,-2.4431,-2.4296,-2.4298,-2.43,-2.4398,0,-2.384,-2.3936,-2.3939,-2.4027,-2.4073,-2.4058,-2.4106,-2.4136,-2.4147,-2.4188,-2.4201,-2.4247,-2.4219,-2.4234,-2.4272,-2.4287,-2.4341,-2.428,-2.4339,-2.4341,-2.433,-2.4447,-2.4463,-2.4554,-2.441,-2.4412,-2.4414,0,-2.3958,-2.3997,-2.4089,-2.4123,-2.4142,-2.4185,-2.4228,-2.4267,-2.4301,-2.4307,-2.4336,-2.433,-2.4387,-2.4347,-2.4425,-2.4384,-2.4408,-2.4419,-2.4423,-2.4427,-2.4381,-2.4455,-2.4582,-2.4596,-2.4434,-2.4432,-2.4431,0,-2.403,-2.4105,-2.417,-2.4189,-2.423,-2.4261,-2.4279,-2.431,-2.4338,-2.4376,-2.4394,-2.4438,-2.4462,-2.4497,-2.4503,-2.4473,-2.4582,-2.4542,-2.4589,-2.4588,-2.4611,-2.4609,-2.4744,-2.4628,-2.4628,-2.4628,-2.4628,0,-2.4131,-2.4189,-2.4203,-2.4244,-2.4308,-2.4312,-2.4375,-2.4391,-2.4419,-2.4462,-2.4453,-2.4494,-2.4501,-2.4543,-2.4549,-2.4613,-2.4624,-2.4631,-2.4631,-2.4631,-2.463,-2.4646,-2.464,-2.4631,-2.4631,-2.463,-2.4629,0,-2.4222,-2.4234,-2.4304,-2.4338,-2.4348,-2.4393,-2.4422,-2.4461,-2.4473,-2.4528,-2.4541,-2.4559,-2.4609,-2.462,-2.4679,-2.4683,-2.4759,-2.4754,-2.4748,-2.4747,-2.4793,-2.4788,-2.4942,-2.4962,-2.4834,-2.4835,-2.4836,0,-2.4284,-2.4328,-2.4367,-2.4396,-2.4416,-2.4462,-2.4491,-2.4497,-2.4528,-2.457,-2.4604,-2.4653,-2.4693,-2.4773,-2.4792,-2.4837,-2.4833,-2.4884,-2.4839,-2.4838,-2.4833,-2.483,-2.4834,-2.4891,-2.4893,-2.4894,-2.4895,0,-2.4395,-2.4399,-2.4442,-2.4487,-2.4522,-2.4557,-2.4591,-2.4615,-2.4626,-2.4661,-2.4713,-2.4743,-2.4805,-2.4854,-2.49,-2.4919,-2.4909,-2.4909,-2.4922,-2.4921,-2.4916,-2.4919,-2.477,-2.4905,-2.4904,-2.4903,-2.4903,-2.4902,-2.4473,-2.4512,-2.4546,-2.4593,-2.462,-2.4652,-2.4691,-2.4708,-2.4751,-2.4801,-2.4803,-2.4859,-2.4893,-2.4954,-2.4976,-2.502,-2.5004,-2.5023,-2.5028,-2.5032,-2.5036,-2.491,-2.5029,-2.5028,-2.5028,-2.5028,-2.5028,0,-2.4582,-2.4604,-2.4648,-2.4697,-2.4735,-2.4723,-2.4761,-2.4793,-2.4843,-2.4875,-2.4915,-2.4975,-2.5023,-2.5046,-2.5094,-2.5125,-2.5122,-2.5137,-2.5134,-2.5139,-2.5048,-2.5032,-2.5139,-2.5139,-2.5139,-2.5139,-2.5139,-2.5139,-2.4644,-2.4709,-2.4718,-2.4797,-2.4818,-2.4873,-2.4896,-2.4926,-2.4952,-2.5019,-2.5059,-2.5075,-2.5104,-2.5154,-2.5198,-2.5204,-2.5222,-2.5239,-2.5243,-2.5157,-2.5145,-2.5135,-2.5119,-2.5243,-2.5243,-2.533,-2.5331,-2.5331]},{"header":{"parameterUnit":"m.s-1","parameterCategory":1,"la1":30.2991,"la2":30.254,"lo1":-89.0895,"lo2":-89.0444,"dy":0.0017,"dx":0.0017,"nx":28,"ny":28,"refTime":"2025-04-22T03:00:00:Z","depth":0,"parameterNumber":3,"parameterNumberName":"V-component_of_WINDS"},"data":[0,0,0,0,0,0,0,0,0,0,0,0,0,0,0,0,0,0,0,0,0,0,0,0,0,0,0,0,0,0,0,0,0,0,0,0,0,0,0,0,0,0,0,0,0,0,0,0,0,0,0,0,0,0,0,0,0,0,0.6241,0.6241,0,0.6232,0.6231,0.6231,0.6235,0.6235,0.6235,0.6236,0.6224,0.6223,0.6222,0,0,0,0,0,0,0,0,0,0,0,0,0,0.6262,0.6261,0.6241,0.6241,0.6241,0.6232,0.6231,0.6231,0.6235,0.6235,0.6236,0.6236,0.6224,0.6223,0.6222,0,0,0,0,0,0,0,0,0,0,0,0,0,0.6253,0.6261,0.6241,0.6242,0.6242,0.6232,0.6231,0.6231,0.6235,0.6235,0.6236,0.6236,0.6224,0.6223,0.6222,0.621,0,0,0.622,0.6219,0,0,0,0,0,0,0,0,0.6253,0.6252,0.6242,0.6242,0.6242,0.6235,0.6234,0.6224,0.6235,0.6237,0.6236,0.6236,0.6227,0.6226,0.6223,0.621,0.6209,0.622,0.6219,0.6219,0.6219,0,0,0,0,0,0,0,0.6254,0.6252,0.6237,0.6242,0.6241,0.6242,0.6241,0.6232,0.623,0.6237,0.6237,0.6236,0.6227,0.6224,0.6223,0.6209,0.622,0.6219,0.6219,0.6218,0.6187,0.6187,0,0,0,0,0,0,0.6255,0.6253,0.6238,0.6237,0.6248,0.6242,0.624,0.6237,0.623,0.623,0.6236,0.6237,0.6225,0.6224,0.6223,0.6209,0.6219,0.6218,0.6218,0.6188,0.6187,0.6187,0,0,0,0,0,0,0.6255,0.6253,0.6238,0.6245,0.6243,0.6241,0.6236,0.6236,0.6233,0.623,0.6229,0.6234,0.6225,0.6224,0.6214,0.6209,0.6218,0.6217,0.6188,0.6187,0.6187,0.6182,0,0,0,0,0,0,0.6256,0.6253,0.6249,0.6245,0.6243,0.623,0.6236,0.6236,0.6232,0.6233,0.6227,0.6226,0.6226,0.6215,0.6213,0.6208,0.6216,0.6188,0.6188,0.6187,0.6182,0.6181,0.618,0,0,0,0,0,0.6256,0.6247,0.6249,0.6247,0.6237,0.6229,0.6228,0.6228,0.6232,0.6227,0.6225,0.6227,0.621,0.6214,0.6212,0.6206,0.6189,0.6188,0.6187,0.6183,0.6181,0.618,0,0,0,0,0,0,0.6249,0.6246,0.6248,0.6237,0.6234,0.623,0.6224,0.6226,0.6221,0.6221,0.6221,0.6219,0.621,0.6207,0.6212,0.6195,0.62,0.6199,0.6197,0.6196,0.6195,0.6195,0.6216,0,0,0,0,0,0.6246,0.6241,0.6238,0.6229,0.6227,0.6226,0.6223,0.6223,0.6219,0.6217,0.6214,0.621,0.6204,0.62,0.6194,0.6182,0.6181,0.6177,0.6176,0.6175,0.6174,0.6169,0.6167,0.6184,0.6184,0.6184,0,0,0.624,0.6238,0.6234,0.6228,0.6225,0.6219,0.6225,0.6218,0.6214,0.6216,0.6207,0.6205,0.62,0.619,0.6185,0.6187,0.6169,0.6174,0.6174,0.6173,0.6168,0.6166,0.6165,0.6184,0.6184,0.6184,0,0,0.6226,0.6224,0.6216,0.6214,0.6211,0.621,0.6209,0.6205,0.6204,0.6196,0.6198,0.6193,0.6182,0.6179,0.6175,0.6163,0.6164,0.6161,0.6154,0.615,0.6148,0.6147,0.6143,0.6141,0.616,0.616,0.616,0,0.6219,0.621,0.6212,0.6206,0.6203,0.6207,0.6199,0.6197,0.6191,0.6189,0.6192,0.618,0.6176,0.6166,0.6163,0.616,0.6159,0.6161,0.6148,0.6147,0.6146,0.6142,0.6141,0.6159,0.6159,0.6159,0.6159,0,0.6202,0.6196,0.6191,0.6187,0.6183,0.6176,0.6177,0.6173,0.6175,0.6174,0.6166,0.6163,0.6157,0.6154,0.6155,0.6144,0.6146,0.6149,0.6153,0.6144,0.6141,0.6139,0.6159,0.6159,0.6159,0.6159,0,0,0.6181,0.618,0.6178,0.6177,0.6174,0.617,0.6163,0.6159,0.6156,0.6152,0.6147,0.6139,0.6142,0.6139,0.6139,0.6135,0.6126,0.6138,0.6138,0.6136,0.6115,0.6113,0.6112,0.6127,0.6127,0.6127,0.6116,0,0.6168,0.6157,0.6159,0.6149,0.6144,0.6149,0.6143,0.6141,0.6141,0.6137,0.6136,0.6131,0.6135,0.6133,0.6129,0.6128,0.6122,0.6129,0.6122,0.6122,0.6123,0.611,0.6107,0.6097,0.6114,0.6114,0.6114,0,0.615,0.6147,0.6137,0.6136,0.6135,0.613,0.6126,0.6122,0.612,0.6121,0.6118,0.612,0.6114,0.6119,0.6111,0.6116,0.6114,0.6113,0.6112,0.6111,0.6117,0.6108,0.6094,0.6092,0.6112,0.6112,0.6112,0,0.6136,0.613,0.6124,0.6122,0.6122,0.6118,0.6118,0.6116,0.6114,0.6111,0.611,0.6106,0.6104,0.6101,0.6101,0.6105,0.6093,0.6098,0.6093,0.6093,0.609,0.609,0.6075,0.6089,0.6089,0.6089,0.6089,0,0.6121,0.6114,0.6118,0.6114,0.6107,0.611,0.6103,0.6103,0.6102,0.6098,0.6101,0.6097,0.6099,0.6095,0.6096,0.6089,0.6088,0.6088,0.6088,0.6088,0.6088,0.6086,0.6087,0.6088,0.6088,0.6089,0.6089,0,0.6104,0.6107,0.61,0.61,0.6101,0.6096,0.6096,0.6092,0.6093,0.6088,0.6087,0.6088,0.6084,0.6085,0.608,0.6081,0.6073,0.6074,0.6074,0.6074,0.6069,0.607,0.6051,0.6049,0.6065,0.6065,0.6065,0,0.6094,0.6089,0.609,0.6088,0.6088,0.6085,0.6083,0.6086,0.6084,0.6082,0.6079,0.6075,0.6073,0.6066,0.6066,0.6063,0.6064,0.6058,0.6063,0.6063,0.6064,0.6065,0.6064,0.6057,0.6056,0.6056,0.6056,0,0.6076,0.6078,0.6075,0.6074,0.6072,0.607,0.6069,0.6067,0.607,0.6068,0.6065,0.6063,0.6059,0.6056,0.6053,0.6052,0.6055,0.6055,0.6053,0.6053,0.6053,0.6053,0.6071,0.6055,0.6055,0.6055,0.6055,0.6055,0.6062,0.6059,0.6059,0.6057,0.6057,0.6056,0.6053,0.6055,0.6052,0.605,0.6052,0.6048,0.6047,0.6044,0.6044,0.6041,0.6043,0.6041,0.604,0.604,0.6039,0.6054,0.604,0.604,0.604,0.604,0.604,0,0.6044,0.6045,0.6043,0.6043,0.6041,0.6045,0.6044,0.6043,0.6039,0.6039,0.6037,0.6034,0.6031,0.6032,0.603,0.6027,0.6028,0.6027,0.6027,0.6027,0.6037,0.6039,0.6026,0.6026,0.6026,0.6026,0.6026,0.6026,0.6035,0.603,0.6032,0.6027,0.6028,0.6026,0.6025,0.6025,0.6025,0.6021,0.602,0.602,0.6021,0.6019,0.6017,0.6017,0.6016,0.6014,0.6014,0.6024,0.6026,0.6027,0.6028,0.6013,0.6013,0.6004,0.6004,0.6004]}]]